Home   Weather   Tel Aviv   Past weeks
Flag for Israel

Past Weather in Tel Aviv, Israel — Yesterday and Last 2 Weeks

Now
54 °F

Passing clouds.


Feels Like: 52 °F
Forecast: 68 / 58 °F
Wind: 6 mph from South

Location: Ben Gurion International Airport

Current Time: Mar 27, 2019 at 5:21:14 am

Latest Report: Mar 27, 2019 at 4:50 am


Visibility: N/A

Pressure: 30.04 "Hg

Humidity: 82%

Dew Point: 48 °F

Location of Tel AvivLocation

Past Weather in Tel Aviv — Graph

°F

Tel Aviv Temperature Yesterday

Maximum temperature yesterday: 66 °F (at 12:20 pm)
Minimum temperature yesterday: 50 °F (at 12:20 am)
Average temperature yesterday: 58 °F

High & Low Weather Summary for the Past Weeks

 TemperatureHumidityPressure
High79 °F (Mar 13, 1:20 pm)94% (Mar 12, 4:20 am)30.21 "Hg (Mar 12, 4:20 am)
Low46 °F (Mar 12, 6:20 am)18% (Mar 13, 3:20 pm)29.56 "Hg (Mar 25, 2:50 am)
Average60 °F73%29.93 "Hg
* Reported Mar 12 4:20 am — Mar 27 4:20 am, Tel Aviv. Weather by CustomWeather, © 2019

Note: Actual official high and low records may vary slightly from our data, if they occured in-between our weather recording intervals... More about our weather records

Advertising

Tel Aviv Weather History for the Previous 24 Hours

Scroll right to see more
 ConditionsComfort  
Time TempWeatherWind HumidityBarometerVisibility
4:20 am
Wed, Mar 27
55 °FPassing clouds.5 mph77%30.01 "HgN/A
3:50 am55 °FClear.5 mph77%30.01 "Hg10 mi
3:20 am55 °FClear.6 mph77%30.01 "Hg10 mi
2:50 am55 °FPassing clouds.7 mph77%30.01 "HgN/A
2:20 am55 °FPassing clouds.7 mph77%30.01 "HgN/A
1:50 am55 °FPassing clouds.6 mph77%30.01 "HgN/A
1:20 am57 °FPassing clouds.6 mph72%30.01 "HgN/A
12:50 am57 °FPassing clouds.3 mph72%30.01 "HgN/A
12:20 am57 °FPassing clouds.3 mph72%30.01 "HgN/A
11:50 pm
Tue, Mar 26
57 °FPassing clouds.5 mph72%30.01 "HgN/A
11:20 pm57 °FPassing clouds.6 mph72%30.01 "HgN/A
10:50 pm59 °FPassing clouds.6 mph68%30.01 "HgN/A
10:20 pm59 °FPassing clouds.6 mph68%30.01 "HgN/A
9:50 pm59 °FPassing clouds.7 mph68%30.01 "HgN/A
9:20 pm59 °FPassing clouds.6 mph68%30.01 "HgN/A
8:50 pm59 °FPassing clouds.6 mph63%30.01 "HgN/A
8:20 pm59 °FClear.5 mph63%30.01 "Hg10 mi
7:50 pm59 °FPassing clouds.5 mph63%30.01 "HgN/A
7:20 pm59 °FPassing clouds.5 mph63%30.01 "HgN/A
6:50 pm59 °FPassing clouds.3 mph63%29.98 "HgN/A
6:20 pm61 °FPassing clouds.6 mph59%29.98 "HgN/A
5:50 pm61 °FPassing clouds.9 mph55%29.98 "HgN/A
5:20 pm63 °FPassing clouds.12 mph49%29.98 "HgN/A
4:50 pm63 °FPassing clouds.12 mph49%29.95 "HgN/A
4:20 pm64 °FPassing clouds.10 mph46%29.95 "HgN/A
3:50 pm64 °FPassing clouds.12 mph43%29.95 "HgN/A
3:20 pm64 °FPassing clouds.12 mph43%29.95 "HgN/A
1:50 pm64 °FPartly sunny.15 mph43%29.92 "HgN/A
1:20 pm64 °FScattered clouds.13 mph46%29.92 "HgN/A
12:50 pm64 °FScattered clouds.13 mph49%29.92 "HgN/A
12:20 pm66 °FPassing clouds.10 mph43%29.92 "HgN/A
11:50 am63 °FScattered clouds.13 mph49%29.95 "HgN/A
11:20 am64 °FScattered clouds.9 mph46%29.92 "HgN/A
10:50 am63 °FPassing clouds.8 mph45%29.95 "HgN/A
10:20 am63 °FScattered clouds.14 mph49%29.95 "HgN/A
9:50 am63 °FScattered clouds.7 mph49%29.95 "HgN/A
9:20 am63 °FPassing clouds.9 mph52%29.95 "HgN/A
8:50 am59 °FPassing clouds.9 mph63%29.92 "HgN/A
8:20 am57 °FPassing clouds.8 mph67%29.92 "HgN/A
7:50 am55 °FScattered clouds.10 mph67%29.92 "HgN/A
7:20 am52 °FPartly sunny.9 mph77%29.92 "HgN/A
6:50 am52 °FScattered clouds.9 mph72%29.89 "HgN/A
6:20 am52 °FSunny.7 mph72%29.89 "Hg10 mi
5:50 am52 °FSunny.8 mph72%29.89 "Hg10 mi
5:20 am50 °FClear.8 mph76%29.89 "Hg10 mi
Weather by CustomWeather, © 2019

See weather overview